Location: Hokitika
(42.7170°S, 170.9670°E)
Time: 12:39:15
(UTC+13:00)

Cosmos 2237 Rocket - Pass Details

Date: 24 January 2019
Orbit: 833 x 851 km, 71.0° (Epoch: 18 February)

Event Time Altitude Azimuth Distance (km) Brightness Sun altitude
Exits shadow 23:50:51 23° 92° (E) 1,719 3.5 -22.4°
Drops below altitude 10° 23:54:31 10° 130° (SE) 2,488 4.8 -22.8°
Sets 23:57:23 0° 143° (SE) 3,428 5.7 -23.0°
